K4FB Weather Reports


Display with metric or nautical units.
time (UTC)temp
F
wind
direction
speed
MPH
gust
MPH
rain 1hr
in
rain 24hr
in
rain mn
in
humidity
%
barometer
mb
20200328094004 68 167 3.0 6.0 0.00 0.00 0.00 87 1015.7
20200328093003 68 162 3.0 6.0 0.00 0.00 0.00 86 1015.7
20200328083003 70 149 3.0 5.0 0.00 0.00 0.00 83 1015.6
20200328052003 75 159 4.0 8.0 0.00 0.00 0.00 73 1016.7
20200328045003 76 156 5.0 9.0 0.00 0.00 0.00 72 1016.8
20200328044004 76 156 5.0 12.0 0.00 0.00 0.00 71 1016.8
20200328031003 76 177 3.0 6.0 0.00 0.00 0.00 69 1016.9
20200328023004 77 139 1.0 2.0 0.00 0.00 0.00 68 1016.6
20200328022003 78 139 1.0 2.0 0.00 0.00 0.00 67 1016.5
20200328020003 79 140 2.0 3.0 0.00 0.00 0.00 66 1016.3
20200328010004 81 154 1.0 3.0 0.00 0.00 0.00 61 1015.2
20200328002004 84 148 1.0 4.0 0.00 0.00 0.00 57 1014.9
20200327235003 86 0 0.0 2.0 0.00 0.00 0.00 54 1014.6
20200327225004 91 142 2.0 5.0 0.00 0.00 0.00 47 1014.3
20200327215003 96 99 2.0 6.0 0.00 0.00 0.00 42 1014.0
20200327213003 98 165 2.0 7.0 0.00 0.00 0.00 40 1013.9
20200327204003 98 288 2.0 4.0 0.00 0.00 0.00 42 1014.3
20200327201003 97 189 4.0 11.0 0.00 0.00 0.00 40 1014.3
20200327194003 95 184 2.0 6.0 0.00 0.00 0.00 42 1014.5
20200327193003 96 154 5.0 12.0 0.00 0.00 0.00 42 1014.5
20200327192003 96 154 4.0 10.0 0.00 0.00 0.00 42 1014.6
20200327164003 88 123 2.0 9.0 0.00 0.00 0.00 56 1016.2
20200327161004 87 154 3.0 8.0 0.00 0.00 0.00 63 1016.4
20200327132003 73 140 3.0 5.0 0.00 0.00 0.00 88 1015.8